Overview Statistics Trail Chart Weather Telemetry Raw packets
 

This is the latest recevied weather packets stored in our database for station/object KB1YTR-1. If no packets are shown the sender has not sent any weather packets the latest 10 day(s).

<< 37 38 39 40 41 42 43 >>
Time Temp. Humidity Pressure Rain* Wind** Luminosity Snow
1787925547 16.11° C 85% 1020.5 hPa 0 mm - - -
1787924655 15° C 89% 1020.4 hPa 0 mm - - -
1787923865 15.56° C 89% 1020.5 hPa 0 mm - - -
1787922986 14.44° C 91% 1020.3 hPa 0 mm - - -
1787922214 14.44° C 92% 1020.3 hPa 0 mm - - -
1787921429 14.44° C 94% 1020.2 hPa 0 mm - - -
1787920630 13.89° C 93% 1020.2 hPa 0 mm - - -
1787919900 13.89° C 93% 1020.1 hPa 0 mm - - -
1787919105 13.89° C 91% 1020.2 hPa 0 mm - - -
1787918230 13.89° C 89% 1020 hPa 0 mm - - -
1787917475 13.89° C 88% 1020 hPa 0 mm - - -
1787916690 13.89° C 91% 1019.9 hPa 0 mm - - -
1787915860 13.89° C 93% 1019.9 hPa 0 mm - - -
1787914980 13.89° C 90% 1020 hPa 0 mm - - -
1787914246 13.89° C 90% 1019.4 hPa 0 mm - - -
1787913404 13.89° C 92% 1019.6 hPa 0 mm - - -
1787912550 13.89° C 91% 1019.6 hPa 0 mm - - -
1787911661 13.89° C 89% 1019.3 hPa 0 mm - - -
1787910789 13.89° C 90% 1019.2 hPa 0 mm - - -
1787910000 13.89° C 89% 1019.3 hPa 0 mm - - -
1787909220 13.89° C 88% 1019.4 hPa 0 mm - - -
1787908315 13.89° C 86% 1019.2 hPa 0 mm - - -
1787907434 13.89° C 85% 1018.9 hPa 0 mm - - -
1787906558 14.44° C 84% 1019 hPa 0 mm - - -
1787905805 14.44° C 83% 1019 hPa 0 mm - - -

* Rain latest hour (hover to see other rain measurements)
** Current wind speed in m/s (hover to see current wind gust speed)